Карточка аэропорта UATG

Внимание!
Информация на этой странице в стадии наполнения.
Если вы не увидели какой-то информации, или заметили неточность - пожалуйста сообщите нам!
Спасибо!
Команда RU-STAFF
Название аэропортаАтырау
Название аэропорта (англ.)Atyrau
Превышение-72 ft. (-21.9 m.)
Координаты47°7.332', 51°49.764'
Высота перехода10000ft
Эшелон переходаFL120, QNH<733:FL130
Коды ответчика3450-3457, 3560-3567
Зона ОрВДАктобе РПИ (UATT)
Данные METARUATG 211100Z 28008MPS 9999 BKN033CB 30/18 Q1004 TEMPO VRB16MPS TS SQ RMK QFE755/1006
Проноз погоды (TAF)UATG 210504Z 2106/2206 26011MPS 9999 SCT033CB TX35/2109Z TN23/2203Z TEMPO 2108/2112 VRB16MPS TS SQ BKN030CB
NOTAMshow/hide NOTAM
AWOS   TABLE

Информация о ВПП

ВПП Длина ВПП (м.) Покрытие Курс ВПП Частота ILS
143000Асфальтобетон149109.9
323000Асфальтобетон329108.3

Диспетчерские позиции

Позывной Наименование органа УВД Частота
UATG_TWRАтырау Вышка118.1
UATG_APPАтырау Подход123.7



Спутниковое изображение